| time (UTC) | temp C | wind direction | speed KPH | gust KPH | rain 1hr cm | rain 24hr cm | rain mn cm | humidity % | barometer mb |
| 20260505181350 | 26 | 272 | 8.0 | 19.3 | 0.00 | 0.00 | 0.00 | 63 | |
| 20260505180450 | 26 | 260 | 4.8 | 20.9 | 0.00 | 0.00 | 0.00 | 61 | |
| 20260505175550 | 27 | 255 | 3.2 | 17.7 | 0.00 | 0.00 | 0.00 | 57 | |
| 20260505174650 | 26 | 267 | 4.8 | 17.7 | 0.00 | 0.00 | 0.00 | 59 | |
| 20260505173750 | 26 | 260 | 3.2 | 20.9 | 0.00 | 0.00 | 0.00 | 60 | |
| 20260505172850 | 26 | 255 | 3.2 | 16.1 | 0.00 | 0.00 | 0.00 | 60 | |
| 20260505171950 | 26 | 249 | 3.2 | 19.3 | 0.00 | 0.00 | 0.00 | 59 | |
| 20260505171050 | 26 | 251 | 4.8 | 16.1 | 0.00 | 0.00 | 0.00 | 58 | |
| 20260505170150 | 26 | 244 | 4.8 | 12.9 | 0.00 | 0.00 | 0.00 | 62 | |
| 20260505164350 | 26 | 270 | 4.8 | 20.9 | 0.00 | 0.00 | 0.00 | 61 | |
| 20260505163450 | 26 | 254 | 3.2 | 20.9 | 0.00 | 0.00 | 0.00 | 59 | |
| 20260505162550 | 26 | 243 | 3.2 | 11.3 | 0.00 | 0.00 | 0.00 | 63 | |
| 20260505161650 | 26 | 247 | 3.2 | 11.3 | 0.00 | 0.00 | 0.00 | 60 | |
| 20260505160750 | 26 | 252 | 3.2 | 16.1 | 0.00 | 0.00 | 0.00 | 61 | |
| 20260505153150 | 26 | 226 | 1.6 | 8.0 | 0.00 | 0.00 | 0.00 | 65 | |
| 20260505151350 | 25 | 249 | 1.6 | 6.4 | 0.00 | 0.00 | 0.00 | 70 | |
| 20260505150450 | 25 | 244 | 1.6 | 11.3 | 0.00 | 0.00 | 0.00 | 69 | |
| 20260505140150 | 23 | 215 | 0.0 | 6.4 | 0.00 | 0.00 | 0.00 | 72 | |
| 20260505124950 | 17 | 139 | 0.0 | 1.6 | 0.00 | 0.00 | 0.00 | 96 | |
| 20260505124050 | 16 | 0 | 0.0 | 0.0 | 0.00 | 0.00 | 0.00 | 96 | |
| 20260505123150 | 16 | 0 | 0.0 | 0.0 | 0.00 | 0.00 | 0.00 | 96 | |
| 20260505122250 | 15 | 0 | 0.0 | 0.0 | 0.00 | 0.00 | 0.00 | 95 | |
| 20260505121350 | 13 | 0 | 0.0 | 0.0 | 0.00 | 0.00 | 0.00 | 95 | |
| 20260505120450 | 12 | 0 | 0.0 | 0.0 | 0.00 | 0.00 | 0.00 | 95 | |
| 20260505115550 | 12 | 0 | 0.0 | 0.0 | 0.00 | 0.00 | 0.00 | 95 | |
| 20260505113750 | 10 | 0 | 0.0 | 0.0 | 0.00 | 0.00 | 0.00 | 94 | |
| 20260505112850 | 10 | 0 | 0.0 | 0.0 | 0.00 | 0.00 | 0.00 | 94 | |
| 20260505111950 | 10 | 0 | 0.0 | 0.0 | 0.00 | 0.00 | 0.00 | 94 | |
| 20260505111050 | 9 | 0 | 0.0 | 0.0 | 0.00 | 0.00 | 0.00 | 94 | |
| 20260505110150 | 9 | 0 | 0.0 | 0.0 | 0.00 | 0.00 | 0.00 | 93 | |
| 20260505101650 | 10 | 0 | 0.0 | 0.0 | 0.00 | 0.00 | 0.00 | 93 | |
| 20260505100750 | 10 | 0 | 0.0 | 0.0 | 0.00 | 0.00 | 0.00 | 93 | |
| 20260505094950 | 10 | 0 | 0.0 | 0.0 | 0.00 | 0.00 | 0.00 | 93 | |
| 20260505094050 | 10 | 0 | 0.0 | 0.0 | 0.00 | 0.00 | 0.00 | 93 | |
| 20260505093150 | 10 | 0 | 0.0 | 0.0 | 0.00 | 0.00 | 0.00 | 93 | |
| 20260505084650 | 10 | 0 | 0.0 | 0.0 | 0.00 | 0.00 | 0.00 | 93 | |
| 20260505083750 | 10 | 0 | 0.0 | 0.0 | 0.00 | 0.00 | 0.00 | 93 | |
| 20260505082850 | 10 | 0 | 0.0 | 0.0 | 0.00 | 0.00 | 0.00 | 93 | |
| 20260505081950 | 10 | 0 | 0.0 | 0.0 | 0.00 | 0.00 | 0.00 | 92 | |
| 20260505081050 | 10 | 0 | 0.0 | 0.0 | 0.00 | 0.00 | 0.00 | 92 | |
| 20260505080150 | 11 | 0 | 0.0 | 0.0 | 0.00 | 0.00 | 0.00 | 92 | |
| 20260505075250 | 11 | 0 | 0.0 | 0.0 | 0.00 | 0.00 | 0.00 | 92 | |
| 20260505074350 | 11 | 0 | 0.0 | 0.0 | 0.00 | 0.00 | 0.00 | 92 | |
| 20260505073450 | 11 | 0 | 0.0 | 0.0 | 0.00 | 0.00 | 0.00 | 92 | |
| 20260505065850 | 11 | 0 | 0.0 | 0.0 | 0.00 | 0.00 | 0.00 | 91 | |
| 20260505064950 | 11 | 0 | 0.0 | 0.0 | 0.00 | 0.00 | 0.00 | 91 | |
| 20260505064050 | 12 | 0 | 0.0 | 0.0 | 0.00 | 0.00 | 0.00 | 91 | |
| 20260505063150 | 12 | 0 | 0.0 | 0.0 | 0.00 | 0.00 | 0.00 | 90 | |
| 20260505062250 | 12 | 0 | 0.0 | 0.0 | 0.00 | 0.00 | 0.00 | 90 | |
| 20260505061350 | 12 | 0 | 0.0 | 0.0 | 0.00 | 0.00 | 0.00 | 90 | |
| 20260505060450 | 12 | 0 | 0.0 | 0.0 | 0.00 | 0.00 | 0.00 | 90 | |
| 20260505055550 | 13 | 0 | 0.0 | 0.0 | 0.00 | 0.00 | 0.00 | 90 | |
| 20260505054650 | 13 | 0 | 0.0 | 0.0 | 0.00 | 0.00 | 0.00 | 89 | |
| 20260505052850 | 13 | 0 | 0.0 | 0.0 | 0.00 | 0.00 | 0.00 | 90 | |
| 20260505051950 | 13 | 0 | 0.0 | 0.0 | 0.00 | 0.00 | 0.00 | 90 | |
| 20260505050150 | 13 | 0 | 0.0 | 0.0 | 0.00 | 0.00 | 0.00 | 89 | |
| 20260505040750 | 15 | 0 | 0.0 | 0.0 | 0.00 | 0.00 | 0.00 | 87 | |
| 20260505035850 | 15 | 0 | 0.0 | 0.0 | 0.00 | 0.00 | 0.00 | 87 | |
| 20260505034950 | 16 | 0 | 0.0 | 0.0 | 0.00 | 0.00 | 0.00 | 86 | |
| 20260505034050 | 16 | 0 | 0.0 | 0.0 | 0.00 | 0.00 | 0.00 | 86 | |
| 20260505033150 | 16 | 0 | 0.0 | 0.0 | 0.00 | 0.00 | 0.00 | 85 | |
| 20260505032250 | 17 | 0 | 0.0 | 0.0 | 0.00 | 0.00 | 0.00 | 84 | |
| 20260505031350 | 17 | 188 | 0.0 | 3.2 | 0.00 | 0.00 | 0.00 | 83 | |
| 20260505030450 | 18 | 202 | 0.0 | 6.4 | 0.00 | 0.00 | 0.00 | 82 | |
| 20260505025550 | 18 | 214 | 0.0 | 6.4 | 0.00 | 0.00 | 0.00 | 83 | |
| 20260505024650 | 17 | 191 | 0.0 | 1.6 | 0.00 | 0.00 | 0.00 | 83 | |
| 20260505022850 | 17 | 194 | 0.0 | 1.6 | 0.00 | 0.00 | 0.00 | 83 | |
| 20260505021950 | 18 | 246 | 0.0 | 9.7 | 0.00 | 0.00 | 0.00 | 83 | |
| 20260505021050 | 17 | 257 | 0.0 | 9.7 | 0.00 | 0.00 | 0.00 | 84 | |
| 20260505020150 | 17 | 184 | 0.0 | 1.6 | 0.00 | 0.00 | 0.00 | 84 | |
| 20260505015250 | 17 | 203 | 0.0 | 3.2 | 0.00 | 0.00 | 0.00 | 84 | |
| 20260505014350 | 17 | 253 | 0.0 | 6.4 | 0.00 | 0.00 | 0.00 | 84 | |
| 20260505013450 | 17 | 261 | 0.0 | 6.4 | 0.00 | 0.00 | 0.00 | 84 | |
| 20260505012550 | 17 | 0 | 0.0 | 0.0 | 0.00 | 0.00 | 0.00 | 83 | |
| 20260505010750 | 18 | 0 | 0.0 | 0.0 | 0.00 | 0.00 | 0.00 | 81 | |
| 20260505005850 | 18 | 188 | 0.0 | 1.6 | 0.00 | 0.00 | 0.00 | 79 | |
| 20260505004950 | 18 | 190 | 0.0 | 1.6 | 0.00 | 0.00 | 0.00 | 78 | |
| 20260505003150 | 19 | 186 | 0.0 | 1.6 | 0.00 | 0.00 | 0.00 | 75 | |
| 20260505002250 | 20 | 222 | 0.0 | 3.2 | 0.00 | 0.00 | 0.00 | 74 | |
| 20260505001350 | 20 | 230 | 0.0 | 6.4 | 0.00 | 0.00 | 0.00 | 73 | |
| 20260505000450 | 20 | 242 | 0.0 | 9.7 | 0.00 | 0.00 | 0.00 | 72 | |
| 20260504235550 | 21 | 218 | 1.6 | 6.4 | 0.00 | 0.00 | 0.00 | 71 | |
| 20260504234650 | 21 | 229 | 1.6 | 11.3 | 0.00 | 0.00 | 0.00 | 70 | |
| 20260504233750 | 21 | 224 | 1.6 | 8.0 | 0.00 | 0.00 | 0.00 | 69 | |
| 20260504231050 | 22 | 256 | 3.2 | 9.7 | 0.00 | 0.00 | 0.00 | 66 | |
| 20260504230150 | 22 | 250 | 3.2 | 12.9 | 0.00 | 0.00 | 0.00 | 65 | |
| 20260504224350 | 23 | 274 | 4.8 | 19.3 | 0.00 | 0.00 | 0.00 | 64 | |
| 20260504223450 | 23 | 252 | 3.2 | 12.9 | 0.00 | 0.00 | 0.00 | 62 | |
| 20260504221650 | 23 | 269 | 4.8 | 17.7 | 0.00 | 0.00 | 0.00 | 61 | |
| 20260504220750 | 23 | 257 | 4.8 | 17.7 | 0.00 | 0.00 | 0.00 | 59 | |
| 20260504214950 | 23 | 273 | 4.8 | 19.3 | 0.00 | 0.00 | 0.00 | 58 | |
| 20260504213150 | 24 | 277 | 4.8 | 17.7 | 0.00 | 0.00 | 0.00 | 57 | |
| 20260504212250 | 24 | 271 | 4.8 | 16.1 | 0.00 | 0.00 | 0.00 | 55 | |
| 20260504210450 | 24 | 266 | 4.8 | 19.3 | 0.00 | 0.00 | 0.00 | 52 | |
| 20260504205550 | 24 | 235 | 3.2 | 12.9 | 0.00 | 0.00 | 0.00 | 53 | |
| 20260504204650 | 25 | 269 | 4.8 | 16.1 | 0.00 | 0.00 | 0.00 | 54 | |
| 20260504203750 | 25 | 273 | 4.8 | 20.9 | 0.00 | 0.00 | 0.00 | 53 | |
| 20260504202850 | 25 | 278 | 4.8 | 19.3 | 0.00 | 0.00 | 0.00 | 50 | |
| 20260504201950 | 25 | 262 | 3.2 | 16.1 | 0.00 | 0.00 | 0.00 | 49 | |
| 20260504201050 | 25 | 262 | 3.2 | 12.9 | 0.00 | 0.00 | 0.00 | 49 | |
| 20260504200150 | 25 | 263 | 3.2 | 17.7 | 0.00 | 0.00 | 0.00 | 48 | |
| 20260504195250 | 25 | 261 | 4.8 | 19.3 | 0.00 | 0.00 | 0.00 | 47 | |
| 20260504192550 | 25 | 261 | 4.8 | 17.7 | 0.00 | 0.00 | 0.00 | 47 | |
| 20260504191650 | 25 | 272 | 3.2 | 16.1 | 0.00 | 0.00 | 0.00 | 46 | |
| 20260504185850 | 25 | 261 | 4.8 | 19.3 | 0.00 | 0.00 | 0.00 | 49 | |
| 20260504184950 | 24 | 276 | 4.8 | 16.1 | 0.00 | 0.00 | 0.00 | 49 | |
| 20260504184050 | 24 | 256 | 4.8 | 16.1 | 0.00 | 0.00 | 0.00 | 50 | |
| 20260504183150 | 25 | 263 | 3.2 | 16.1 | 0.00 | 0.00 | 0.00 | 50 | |
| 20260504182250 | 25 | 265 | 4.8 | 19.3 | 0.00 | 0.00 | 0.00 | 53 |